Home   Weather   San Antonio   Past weeks
Flag for USA

Past Weather in San Antonio, Texas, USA — Yesterday and Last 2 Weeks

Now
77 °F

Fog.


Feels Like: 78 °F
Forecast: 92 / 76 °F
Wind: 3 mph from South

Location: San Antonio International Airport

Current Time: May 19, 2019 at 4:18:51 am

Latest Report: May 19, 2019 at 3:24 am


Visibility: 5 mi

Pressure: 29.78 "Hg

Humidity: 90%

Dew Point: 74 °F

Location of San AntonioLocation

Past Weather in San Antonio — Graph

°F

San Antonio Temperature Yesterday

Maximum temperature yesterday: 84 °F (at 6:51 pm)
Minimum temperature yesterday: 75 °F (at 3:51 am)
Average temperature yesterday: 78 °F

High & Low Weather Summary for the Past Weeks

 TemperatureHumidityPressure
High88 °F (May 17, 2:51 pm)97% (May 4, 3:51 am)30.04 "Hg (May 4, 3:51 am)
Low57 °F (May 10, 8:23 am)44% (May 4, 5:51 pm)29.60 "Hg (May 8, 4:51 pm)
Average72 °F79%29.85 "Hg
* Reported May 4 3:51 am — May 19 3:08 am, San Antonio. Weather by CustomWeather, © 2019

Note: Actual official high and low records may vary slightly from our data, if they occured in-between our weather recording intervals... More about our weather records

Advertising

San Antonio Weather History for the Previous 24 Hours

Scroll right to see more
 ConditionsComfort  
Time TempWeatherWind HumidityBarometerVisibility
3:08 am
Sun, May 19
77 °FFog.6 mph90%29.78 "Hg5 mi
2:53 am77 °FFog.N/A94%N/A5 mi
1:53 am79 °FFog.N/A89%N/A5 mi
12:51 am78 °FFog.10 mph90%29.72 "Hg5 mi
11:51 pm
Sat, May 18
78 °FFog.10 mph90%29.72 "Hg6 mi
10:51 pm78 °FFog.10 mph90%29.69 "Hg6 mi
10:24 pm78 °FFog.9 mph90%29.73 "Hg6 mi
9:51 pm78 °FFog.14 mph90%29.67 "Hg6 mi
9:33 pm79 °FFog.8 mph88%29.72 "Hg6 mi
9:14 pm78 °FFog.8 mph90%29.71 "Hg6 mi
8:58 pm77 °FFog.7 mph90%29.70 "Hg6 mi
8:02 pm81 °FBroken clouds.8 mph82%29.69 "Hg7 mi
7:51 pm81 °FPartly sunny.7 mph82%29.62 "Hg8 mi
6:51 pm84 °FPartly sunny.6 mph74%29.61 "Hg8 mi
5:51 pm83 °FPartly sunny.7 mph74%29.61 "Hg8 mi
4:51 pm82 °FOvercast.7 mph77%29.61 "Hg8 mi
4:17 pm81 °FMostly cloudy.7 mph79%29.68 "Hg8 mi
3:51 pm82 °FCloudy.9 mph77%29.62 "Hg8 mi
2:51 pm79 °FLight rain. Fog.8 mph88%29.64 "Hg5 mi
1:51 pm78 °FLight rain. Fog.12 mph87%29.66 "Hg4 mi
1:23 pm78 °FLight rain. Cloudy.22 mph84%29.71 "Hg4 mi
12:51 pm79 °FMostly cloudy.12 mph84%29.67 "Hg6 mi
12:17 pm78 °FLight rain. Mostly cloudy.14 mph84%29.73 "Hg4 mi
11:51 am79 °FMore clouds than sun.15 mph82%29.68 "Hg9 mi
10:51 am79 °FMostly cloudy.12 mph82%29.69 "Hg9 mi
10:21 am78 °FMostly cloudy.15 mph84%29.73 "Hg10 mi
9:51 am78 °FMore clouds than sun.20 mph84%29.66 "Hg9 mi
8:51 am76 °FMostly cloudy.17 mph91%29.67 "Hg8 mi
7:51 am75 °FLight rain. Fog.16 mph94%29.69 "Hg5 mi
6:51 am76 °FLight rain. Low clouds.10 mph88%29.69 "Hg8 mi
5:51 am75 °FMostly cloudy.16 mph90%29.67 "Hg9 mi
4:51 am75 °FLight rain. Overcast.13 mph90%29.68 "Hg8 mi
Weather by CustomWeather, © 2019

See weather overview